Voltar ao catálogo

SL-14 DEB

AtivoPO
NORAD 45306·DEBRIS·🇷🇺 Russia

Lançado Aug 15, 1991 de Plesetsk Cosmodrome

Loading…

Próximas Passagens (próximas 24 horas)

TLE

AtualizadoSource: Space-Track

Época: Sep 14, 2026, 08:02 UTC

1 45306U 91056AU  26257.33487439  .00008712  00000-0  13181-1 0  9995
2 45306  82.6068  20.7494 0085619 314.7981  44.6220 13.50889967322256

Acompanhe SL-14 DEB em tempo real com AllMySat

Download on the App Store